Location: Ark
(40.5888°N, 111.8985°W)
Time: 06:07:15
(UTC+00:00)

Daily predictions for brighter satellites

Satellite Brightness Start Highest point End
(mag) Time Altitude Azimuth Time Altitude Azimuth Time Altitude Azimuth
ATLAS CENTAUR Rocket 4.0 12:05:04 18° S 12:07:07 23° SSE 12:14:08 10° ESE
NOSS 2-1 (E) 4.5 12:07:52 44° ENE 12:07:52 44° ENE 12:12:02 10° SE
Cosmos 1980 Rocket 3.5 12:13:59 27° SSW 12:13:59 27° SSW 12:16:36 10° S
Cosmos 841 Rocket 4.1 12:20:56 44° N 12:20:56 44° N 12:24:34 10° NNE
Cosmos 2180 Rocket 4.4 12:18:38 60° NW 12:19:30 66° W 12:25:46 10° S
Cosmos 2369 3.5 12:21:06 71° W 12:21:24 73° WSW 12:27:01 10° SSE
FengYun 1-2 T 4.1 12:16:28 10° NNE 12:22:10 86° WNW 12:27:48 10° SSW
NOSS 2-1 (C) 3.5 12:26:10 79° ESE 12:26:10 79° ESE 12:31:01 10° SE
Cosmos 1892 Rocket 3.9 12:21:48 10° S 12:26:06 63° E 12:30:27 10° NNE
Cosmos 2026 Rocket 4.3 12:23:24 10° S 12:29:22 65° E 12:35:23 10° NNE
COSMO-SKYMED 1 3.8 12:27:14 10° SE 12:31:02 38° ENE 12:34:18 13° N
Cosmos 2360 Rocket 3.6 12:38:31 10° N 12:43:37 34° ENE 12:48:40 10° ESE
COSMOS 2455 3.0 12:42:54 42° WNW 12:44:22 52° WSW 12:50:09 10° S
Cosmos 2333 Rocket 2.9 12:41:13 14° NNW 12:46:07 53° ENE 12:51:42 10° SE
Cosmos 1484 Rocket 4.4 12:44:02 10° NE 12:47:03 30° E 12:50:03 10° SSE
Cosmos 1898 Rocket 3.8 12:50:42 41° WNW 12:51:30 44° WSW 12:56:27 10° S
NOSS 3-1 (C) 4.1 12:49:16 24° NW 12:54:18 75° WSW 13:03:26 10° SSE
Cosmos 1092 Rocket 3.9 12:50:19 10° S 12:56:36 87° W 13:02:53 10° N
IRS-1D 3.5 12:52:31 10° N 12:57:27 59° WNW 13:02:27 10° SSW
SL-24 R/B 4.2 12:52:43 10° N 12:57:54 67° WNW 13:02:23 10° SSW
Nadezhda 4 Rocket 4.3 12:53:09 10° SW 12:59:03 41° WNW 13:04:57 10° N
Cosmos 2219 Rocket 3.9 12:55:57 10° N 13:00:49 28° NE 13:05:37 10° ESE
Helios 1A Rocket 2.5 12:58:18 10° SSE 13:01:37 76° ENE 13:03:39 22° N
CZ-3 R/B 4.2 12:53:55 18° W 13:02:18 24° SW 13:09:17 10° S
SKYMED 2 3.6 12:59:26 10° S 13:03:41 57° W 13:06:17 23° NNW
Cosmos 2058 Rocket 3.0 13:01:17 10° N 13:05:44 85° E 13:10:06 10° S
Okean 1 3.4 13:02:42 10° N 13:06:14 62° E 13:09:45 10° SSE
Cosmos 2322 Rocket 2.7 13:01:46 10° NNW 13:07:25 59° ENE 13:12:58 10° SE
Cosmos 1937 Rocket 3.9 13:10:03 26° NW 13:12:13 39° WSW 13:16:56 10° S
Meteor 2-20 4.4 13:12:09 10° NNW 13:18:08 60° W 13:24:05 10° S
SL-4 R/B 3.3 13:17:09 16° NNW 13:18:27 21° NNE 13:20:57 10° ENE
Meteor 2-3 Rocket 4.3 13:18:19 10° SW 13:23:30 35° WNW 13:28:41 10° N
CZ-4 R/B 4.3 13:19:58 10° N 13:24:09 34° WNW 13:28:17 10° SW
Cosmos 405 Rocket 2.2 13:21:01 10° S 13:24:16 86° E 13:27:32 10° N
Tiangong 0.0 13:24:00 15° SW 13:24:59 17° SSW 13:27:07 10° S
COSMOS 2406 4.2 13:26:17 17° W 13:28:59 24° NW 13:33:32 10° N
Meteor 1-26 Rocket 4.2 13:23:49 10° NNW 13:29:18 61° W 13:34:56 10° S
Cosmos 2151 4.1 13:25:49 10° SSE 13:29:41 45° E 13:33:37 10° NNE
SL-08 ROCKET BODY 4.4 13:25:04 10° S 13:30:55 85° E 13:36:47 10° N
IRIDIUM 104 4.3 13:26:07 10° S 13:31:19 89° W 13:36:35 10° N
Cosmos 2082 Rocket 3.9 13:34:26 13° NW 13:34:26 13° NW 13:36:27 10° NNW
Cosmos 1814 Rocket 4.0 13:30:08 10° SSW 13:35:17 60° WNW 13:40:31 10° NNE
SL-16 R/B 2.5 13:30:26 12° NW 13:35:26 46° WSW 13:40:48 10° S
Cosmos 1758 Rocket 3.5 13:31:37 10° S 13:36:03 83° W 13:40:28 10° N
BREEZE-M DEB (TANK) 3.9 13:34:47 18° NW 13:36:13 25° N 13:40:44 10° ENE
DMSP B5D1-3 4.5 13:32:57 10° S 13:38:03 77° WSW 13:43:11 10° NNW
Cosmos 2221 3.4 13:35:20 10° N 13:39:21 48° E 13:43:21 10° SSE
Meteor 2-20 Rocket 4.4 13:34:12 10° NNW 13:39:47 55° W 13:45:19 10° S
IRIDIUM 114 4.3 13:35:16 10° S 13:40:27 74° W 13:45:42 10° N
ATLAS 2AS CENTAUR R/B 3.0 13:35:07 10° SSW 13:42:12 77° ESE 13:49:07 10° NE
USA 59 Rocket 1.9 13:42:48 12° W 13:44:40 16° WSW 13:47:44 10° SSW
CBERS-1 3.9 13:39:42 10° N 13:44:47 74° WNW 13:49:50 10° SSW
IRIDIUM 103 4.4 13:44:30 10° SSW 13:49:38 60° W 13:54:49 10° N
BREEZE-M DEB (TANK) 3.1 13:51:21 12° WNW 13:54:20 70° NNE 14:03:18 10° ESE
Cosmos 1626 Rocket 4.1 13:54:49 10° SSW 13:58:55 38° WNW 14:03:02 10° N
Cosmos 2278 4.4 13:54:34 10° NW 13:59:34 33° WSW 14:04:31 10° SSW
BREEZE-M DEB (TANK) 3.9 13:58:18 10° SW 14:02:17 46° SSE 14:04:35 10° ENE
NOSS 3-1 (A) 4.4 13:55:06 10° NW 14:02:35 61° WSW 14:11:36 10° SSE
CORIOLIS 4.1 13:57:20 10° NNE 14:02:44 81° WNW 14:08:07 10° SSW
Meteor 1-20 Rocket 4.4 13:57:11 10° S 14:02:51 79° E 14:08:25 10° NNE
Thor Agena Rocket 3.4 13:58:55 10° N 14:03:57 72° WNW 14:08:56 10° SSW
Cosmos 158 Rocket 4.5 14:00:14 10° SW 14:05:12 39° WNW 14:10:07 10° N
COSMO-SKYMED 1 4.1 14:03:53 10° SW 14:06:29 16° W 14:09:07 10° NW
Cosmos-2242 4.3 14:04:07 10° NW 14:07:13 20° W 14:10:17 10° SW
NOSS 8 (A) 4.3 14:05:42 10° NW 14:08:41 69° WSW 14:12:13 10° SSE
Cosmos 2285 Rocket 4.2 14:04:30 10° NNW 14:10:43 56° WSW 14:16:57 10° S
